Flag for USA Past Weather in Avalon (Santa Catalina Island), California, USA — Yesterday and Last 2 Weeks

Now
60 °F

Scattered clouds.


Feels Like: 60 °F
Forecast: 69 / 85 °F
Wind: No wind

Location: Catalina Airport

Current Time: Jun 30, 2016 at 9:04:52 AM

Latest Report: Jun 30, 2016 at 7:51 AM


Visibility: 7 mi

Pressure: 29.85 "Hg

Humidity: 100%

Dew Point: 60 °F

Location of Avalon (Santa Catalina Island)Location

Past Weather in Avalon (Santa Catalina Island) — Graph

°F

Avalon (Santa Catalina Island) Temperature Yesterday

Maximum temperature yesterday: 82 °F (at 10:51 AM)
Minimum temperature yesterday: 65 °F (at 10:51 PM)
Average temperature yesterday: 75 °F

High & Low Weather Summary for the Past Weeks

 TemperatureHumidityPressure
High101 °F (Jun 20, 9:51 AM)100% (Jun 15, 7:01 AM)30.05 "Hg (Jun 15, 7:01 AM)
Low52 °F (Jun 16, 12:51 AM)5% (Jun 20, 12:51 AM)29.80 "Hg (Jun 20, 5:51 PM)
Average72 °F52%29.91 "Hg
* Reported Jun 15 7:01 AM — Jun 30 7:51 AM, Avalon (Santa Catalina Island), Weather by CustomWeather, © 2016

Note: Actual official high and low records may vary slightly from our data, if they occured in-between our weather recording intervals... More about our weather records

Advertising

Avalon (Santa Catalina Island) Weather History for the Previous 24 Hours

Scroll right to see more
 ConditionsComfort  
Time TempWeatherWind HumidityBarometerVisibility
7:51 AM
Thu, Jun 30
60 °FScattered clouds.No wind100%29.85 "Hg7 mi
6:51 AM58 °FFog.No wind100%29.83 "Hg0 mi
5:58 AM58 °FFog.3 mph100%29.89 "Hg1 mi
4:51 AM59 °FFog.3 mph96%29.82 "Hg0 mi
4:00 AM60 °FFog.No wind86%29.88 "Hg3 mi
2:51 AM68 °FClear.5 mph45%29.80 "Hg10 mi
1:51 AM68 °FClear.3 mph59%29.81 "Hg10 mi
12:51 AM60 °FFog.5 mph96%29.83 "Hg0 mi
12:01 AM61 °FDense fog.No wind83%29.92 "Hg1 mi
10:51 PM
Wed, Jun 29
65 °FClear.3 mph70%29.83 "Hg10 mi
9:51 PM71 °FClear.No wind51%29.83 "Hg10 mi
8:51 PM73 °FSunny.3 mph44%29.82 "Hg10 mi
7:51 PM75 °FSunny.No wind40%29.82 "Hg10 mi
6:51 PM79 °FSunny.3 mph32%29.81 "Hg10 mi
5:51 PM78 °FPassing clouds.6 mph35%29.82 "Hg7 mi
4:51 PM78 °FSunny.5 mph42%29.83 "Hg10 mi
3:51 PM78 °FSunny.6 mph46%29.85 "Hg10 mi
2:51 PM79 °FSunny.6 mph47%29.85 "Hg10 mi
1:51 PM79 °FSunny.6 mph48%29.86 "Hg10 mi
12:51 PM82 °FHaze.5 mph48%29.87 "Hg3 mi
11:51 AM79 °FPassing clouds.5 mph52%29.88 "Hg10 mi
10:51 AM82 °FSunny.3 mph40%29.88 "Hg8 mi
10:03 AM79 °FSunny.3 mph52%29.98 "Hg2 mi
9:51 AM80 °FSunny.5 mph49%29.88 "Hg9 mi
Weather by CustomWeather, © 2016

See weather overviewHow to use our weather pages